Regional Weather Roundup
Issued by NWS

Home | Current Version | Previous Version | Graphics & Text | Print | Product List | Glossary On
Versions: 1 2 3 4 5 6 7 8 9 10 11 12 13 14 15 16 17 18 19 20 21 22 23 24 25 26 27 28 29 30 31 32 33 34 35 36 37 38 39 40 41 42 43 44 45 46 47 48 49 50
000
ASUS43 KLOT 022110
RWRIL

ILLINOIS REGIONAL WEATHER ROUNDUP
NATIONAL WEATHER SERVICE CHICAGO/ROMEOVILLE IL
300 PM CST MON MAR 02 2015

NOTE: "FAIR" INDICATES FEW OR NO CLOUDS BELOW 12,000 FEET WITH NO
SIGNIFICANT WEATHER AND/OR OBSTRUCTIONS TO VISIBILITY.

* THESE STATIONS ARE NOT UNDER NWS QUALITY CONTROL. THEY ALSO MAY NOT
  REPORT WEATHER SUCH AS PRECIPITATION OR FOG.

ILZ001-002-007-009-015-016-024-022200-
NORTHWEST ILLINOIS

CITY           SKY/WX    TMP DP  RH WIND       PRES   REMARKS
MOLINE         PTSUNNY   27  16  63 SE8       30.42F WCI  19
STERLING*      SUNNY     25  16  68 SE5       30.43F WCI  19
SAVANNA*       MOSUNNY   28  16  62 SE7       30.42F WCI  21
$$

ILZ003-004-008-010-011-017-018-022200-
NORTH CENTRAL ILLINOIS

CITY           SKY/WX    TMP DP  RH WIND       PRES   REMARKS
ROCKFORD       CLOUDY    26  14  60 S8        30.44F WCI  18
FREEPORT*      MOSUNNY   24  14  66 CALM      30.43F
ROCHELLE*      SUNNY     25  15  66 CALM      30.43F
DE KALB*       SUNNY     24  14  64 S6        30.43F WCI  17
PERU*          SUNNY     29  17  61 S7        30.44F WCI  22
$$

ILZ005-006-012>014-019>023-022200-
NORTHEAST ILLINOIS

CITY           SKY/WX    TMP DP  RH WIND       PRES   REMARKS
CHICAGO-OHARE  CLOUDY    31  11  43 VRB3      30.42F
CHICAGO-MIDWAY PTSUNNY   33  13  43 S6        30.43F WCI  28
AURORA         SUNNY     30  12  47 VRB3      30.43F
LANSING*       MOSUNNY   31  15  51 CALM      30.44F
JOLIET*        SUNNY     29  13  51 CALM      30.44F
WAUKEGAN       MOSUNNY   26  14  60 SE6       30.43F WCI  19
DUPAGE AIRPORT MOSUNNY   30  13  49 S6        30.42F WCI  24
KANKAKEE*      SUNNY     27  15  60 SE6       30.46F WCI  21
WHEELING       MOSUNNY   30   9  41 S7        30.44F WCI  23
MORRIS*        SUNNY     26  16  65 CALM      30.44F
ROMEOVILLE*    SUNNY     30  14  51 CALM      30.44F
NORTHERLY ISL    N/A     27  17  66 E7          N/A  WCI  20
$$

LMZ740>746-022200-
SOUTHERN LAKE MICHIGAN

STATION/POSITION SKY/WX   TEMP    WIND        PRES    VSBY  WAVE
                          AIR SEA DIR/SP/G                  HT/PER
                          (F)     (DEG/KT/KT) (MB)    (MI)  (FT/S)
WAUKEGAN HARBOR            26     110/ 17/ 26   N/A
HARRISON CRIB              25      90/  9/ 11   N/A
BURNHAM HARBOR             27      90/  8       N/A
CALUMET HARBOR             26      80/  8/ 10 1029.7F
MICHIGAN CITY              31     330/  3/  4   N/A
$$

ILZ025>027-034>036-040-047-049-050-058-095>099-022200-
WEST-CENTRAL ILLINOIS

CITY           SKY/WX    TMP DP  RH WIND       PRES   REMARKS
QUINCY         PTSUNNY   34  18  52 SE7       30.39F WCI  28
GALESBURG*     CLOUDY    28  17  63 S3        30.42F
MACOMB*        CLOUDY    30  17  58 CALM      30.45F
JACKSONVILLE*  MOSUNNY   33  23  69 E8        30.44F WCI  25
PITTSFIELD*    PTSUNNY   34  20  56 SE7       30.42F WCI  28
$$

ILZ028>032-037-038-041>044-048-051>054-059>061-022200-
CENTRAL ILLINOIS

CITY           SKY/WX    TMP DP  RH WIND       PRES   REMARKS
PONTIAC        SUNNY     25  18  75 SE6       30.46F WCI  18
BLOOMINGTON    MOSUNNY   27  20  75 SE6       30.45S WCI  21
DECATUR        CLOUDY    28  19  69 E8        30.46S WCI  20
PEORIA         CLOUDY    32  19  58 S10       30.44F WCI  24
LACON*         SUNNY     26  15  63 SE9       30.45S WCI  16
LINCOLN*       CLOUDY    31  21  66 SE3       30.47F
SPRINGFIELD    CLOUDY    32  18  56 SE7       30.45F WCI  26
TAYLORVILLE    MOSUNNY   32  18  55 SE6       30.45F WCI  26
$$

ILZ033-039-045-046-055>057-062-063-022200-
EAST-CENTRAL ILLINOIS

CITY           SKY/WX    TMP DP  RH WIND       PRES   REMARKS
CHAMPAIGN      PTSUNNY   25  18  74 SE5       30.46S WCI  19
DANVILLE*      MOSUNNY   24  17  73 CALM      30.43S
RANTOUL*       MOSUNNY   26  18  69 CALM      30.46R
MATTOON        MOSUNNY   28  19  69 W7        30.44S WCI  21
PARIS*         PTSUNNY   29  22  75 W6        30.46F WCI  23
$$

ILZ079-100>102-022200-
SOUTHWEST ILLINOIS

CITY           SKY/WX    TMP DP  RH WIND       PRES   REMARKS
ALTON          PTSUNNY   34  14  44 E9        30.45  WCI  26
BELLEVILLE     PTSUNNY   33  20  58 E5        30.44F WCI  29
CAHOKIA*       PTSUNNY   34  18  52 E6        30.44F WCI  29
SPARTA*        CLOUDY    32  19  58 E8        30.45F WCI  25
$$

ILZ064>066-069>071-074>076-080>082-084>086-088>090-092>094-022200-
SOUTH-CENTRAL ILLINOIS

CITY           SKY/WX    TMP DP  RH WIND       PRES   REMARKS
CARBONDALE     PTSUNNY   39  23  52 NE9       30.43F WCI  33
CAIRO*         SUNNY     40  21  46 NE12      30.41F
EFFINGHAM*     MOSUNNY   32  15  47 CALM      30.47F
MARION         PTSUNNY   39  21  48 NE9       30.43F WCI  33
MT. VERNON     PTSUNNY   32  18  55 NE8       30.46S WCI  25
CENTRALIA*     PTSUNNY   33  16  49 NE5       30.44F WCI  29
SALEM*         PTSUNNY   35  18  50 NE6       30.45F WCI  30
METROPOLIS*    SUNNY     40  20  46 NE7       30.40F
$$

ILZ067-068-072-073-078-083-087-091-022200-
SOUTHEAST ILLINOIS

CITY           SKY/WX    TMP DP  RH WIND       PRES   REMARKS
LAWRENCEVILLE  MOSUNNY   34  18  52 N5        30.46F WCI  30
FLORA*         MOSUNNY   32  17  53 NE5       30.47S WCI  27
FAIRFIELD*     PTSUNNY   33  18  55 NE5       30.45S WCI  28
HARRISBURG*    PTSUNNY   37  22  54 NE7       30.45S WCI  31
ROBINSON*      SUNNY     32  19  59 W3        30.47S
CARMI*         PTSUNNY   37  25  62 NE5       30.44F WCI  33
$$

ABBREVIATIONS USED IN REMARKS
   TC - TEMPERATURE IN CELSIUS
  WCI - WIND CHILL INDEX
   HX - HEAT INDEX
  VSB - VISIBILITY
$$



USA.gov is the U.S. government's official web portal to all federal, state and local government web resources and services.